sat.trackr.live / text

‹ back to catalog

BEIDOU-3 M13 (C32)

NORAD 43622 · 2018-072A

PAYLOAD ACTIVE UNKNOWN

§ Identity

Operator
Country
PRC
Launch date
2018-09-19
Launch site
XICLF
Launch vehicle
Mass (kg)
RCS (m²)

Purposes: earth_obs, nav

External: N2YO · Heavens-Above · Gunter

§ Orbital elements

Epoch: 2026-09-18T23:11:06.497088Z

Period
773.23 min
Inclination
56.7109°
Eccentricity
0.0004097
Mean motion
1.86231216 rev/d
Perigee alt
21,516.6 km
Apogee alt
21,539.5 km
Semi-major
27,906.2 km
B*
0.0000e+0
RAAN
59.5699°
Arg perigee
325.8897°
Mean anomaly
34.1026°
Rev number
5,440

§ Raw data

BEIDOU-3 M13 (C32)1 43622U 18072A   26261.96604742 -.00000016  00000+0  00000+0 0  99962 43622  56.7109  59.5699 0004097 325.8897  34.1026  1.86231216 54401

JSON: /api/v1/satellites/43622 · /tle

For live sub-satellite position, see the globe view (requires WebGL).

§ Visibility from observer

Set your observer location to see the next 7 days of passes ≥ 10°. The values pass through the URL so the page stays shareable.

No JS? Fill the form by hand. The geolocation button needs JavaScript.